186P/Garradd (2019)

Japanese version
Home page
Updated on February 21, 2021

---------------------------------------------------------------------

* Profile

* Pictures

* Orbital Elements

Epoch 2019 Apr. 27.0 TT = JDT 2458600.5
T 2019 May 4.95815 TT                                   Rudenko
q   4.3894713            (2000.0)            P               Q
n   0.08790507     Peri.  283.79883     -0.26416790     +0.92914960
a   5.0094891      Node   327.06900     -0.59295212     -0.36796200
e   0.1237687      Incl.   28.40963     -0.76067280     -0.03584675
P  11.2
From 349 observations 1977 July 18-2020 Sept. 16, mean residual 0".6.

* Magnitudes Graph

        m1 = -4.5 + 5 log d + 30 log r

---------------------------------------------------------------------

The orbital elements are published on M.P.E.C. 2020-S188.
The magnitudes graphs are made with Comet for Windows.

---------------------------------------------------------------------

Copyright(C) Seiichi Yoshida (comet@aerith.net). All rights reserved.